User: anonymous   Login
Location: Ar Ranvel
(48.3000°N, 4.8833°W)
Time: 09:54:36
(UTC+00:00)
Language:

Meteor 2-10 Rocket - Orbit

View from above orbital plane
View from above orbital plane
View from above satellite
View from above satellite

Ground track
Ground track

The orbit data is extracted from the following two-line orbital elements,

1 14453U 83109B   21264.92755638  .00000058  00000-0  18612-4 0  9993
2 14453  81.1691 339.1154 0103948 236.4598 122.6620 14.24755424969262
Epoch (UTC): 21 September 2021 22:15:40
Eccentricity: 0.0103948
inclination: 81.1691°
perigee height: 734 km
apogee height: 884 km
right ascension of ascending node: 339.1154°
argument of perigee: 236.4598°
revolutions per day: 14.24755424
mean anomaly at epoch: 122.6620°
orbit number at epoch: 96926

The dashed part of the orbit path shows where the satellite is in the earth's shadow,  

DLR